, TX

(GMT )
Port Isabel

Weather History for KPIL - September, 2013

Change the Weather History Date:

Monday, September 9, 2013

  Actual Average Record
Temperature  
Mean Temperature 82 °F -  
Max Temperature 88 °F - - ()
Min Temperature 77 °F - - ()
Cooling Degree Days 16    
Growing Degree Days 32 (Base 50)    
Moisture  
Dew Point 75 °F    
Average Humidity 86    
Maximum Humidity 94    
Minimum Humidity 63    
Precipitation  
Precipitation 0.30 in - - ()
Sea Level Pressure  
Sea Level Pressure 29.88 in    
Wind  
Wind Speed 7 mph (SE)    
Max Wind Speed 16 mph    
Max Gust Speed 21 mph    
Visibility 9 miles    
Events Rain , Thunderstorm    
T = Trace of Precipitation, MM = Missing Value Source: NWS Daily Summary

Daily Weather History Graph

Daily Weather History Graph

Search for Another Location

Airport or City:

Trip Planner

Search our weather history database for the weather conditions in past years. The results will help you decide how hot, cold, wet, or windy it might be!

Date:

Astronomy

Sep. 09, 2013 Rise Set
Actual Time 7:12 AM CDT 7:39 PM CDT
Civil Twilight 6:49 AM CDT 8:03 PM CDT
Nautical Twilight 6:22 AM CDT 8:30 PM CDT
Astronomical Twilight 5:54 AM CDT 8:57 PM CDT
Moon 11:06 AM CDT (9/9) 10:28 PM CDT (9/9)
Length of Visible Light 13h 13m
Length of Day
12h 27m
Waxing Crescent, 19% of the Moon is Illuminated
Sep 9
Waxing Crescent
Sep 12
First Quarter
Sep 19
Full
Sep 26
Last Quarter
Oct 4
New

Hourly Weather History & Observations

Time (CDT) Temp. Heat Index Dew Point Humidity Pressure Visibility Wind Dir Wind Speed Gust Speed Precip Events Conditions
12:53 AM 78.1 °F - 73.9 °F 87% 29.85 in 10.0 mi East 5.8 mph - N/A   Partly Cloudy
1:17 AM 78.8 °F - 75.2 °F 89% 29.85 in 10.0 mi SE 4.6 mph - N/A   Mostly Cloudy
1:53 AM 79.0 °F - 75.0 °F 88% 29.86 in 10.0 mi ESE 6.9 mph - N/A   Mostly Cloudy
2:53 AM 80.1 °F 84.5 °F 73.9 °F 81% 29.86 in 10.0 mi SE 3.5 mph - N/A   Scattered Clouds
3:53 AM 77.0 °F - 73.0 °F 88% 29.85 in 10.0 mi ESE 13.8 mph 20.7 mph N/A   Partly Cloudy
4:53 AM 77.0 °F - 75.0 °F 94% 29.84 in 9.0 mi ESE 3.5 mph - 0.00 in   Overcast
5:53 AM 77.0 °F - 75.0 °F 94% 29.85 in 10.0 mi ESE 3.5 mph - 0.00 in   Mostly Cloudy
6:53 AM 77.0 °F - 73.9 °F 90% 29.86 in 10.0 mi SE 5.8 mph - N/A   Partly Cloudy
7:53 AM 78.1 °F - 75.9 °F 93% 29.87 in 8.0 mi ESE 3.5 mph - N/A   Scattered Clouds
8:53 AM 79.0 °F - 73.9 °F 84% 29.89 in 9.0 mi SSE 5.8 mph - N/A   Partly Cloudy
9:53 AM 82.9 °F 90.2 °F 75.0 °F 77% 29.91 in 10.0 mi East 4.6 mph - N/A   Overcast
10:53 AM 86.0 °F 92.2 °F 72.0 °F 63% 29.91 in 5.0 mi ESE 10.4 mph - N/A   Haze
11:53 AM 78.1 °F - 73.9 °F 87% 29.91 in 5.0 mi SSW 13.8 mph 17.3 mph 0.01 in Rain Light Rain
12:01 PM 77.0 °F - 73.4 °F 89% 29.91 in 1.5 mi WSW 9.2 mph - 0.09 in Rain Heavy Rain
12:09 PM 78.8 °F - 75.2 °F 89% 29.90 in 3.0 mi WSW 4.6 mph - 0.10 in Rain Light Rain
12:53 PM 80.1 °F 86.4 °F 78.1 °F 94% 29.90 in 10.0 mi Calm Calm - 0.10 in   Partly Cloudy
1:08 PM 80.6 °F 88.1 °F 78.8 °F 94% 29.90 in 10.0 mi Calm Calm - N/A Thunderstorm Mostly Cloudy
1:41 PM 78.8 °F - 75.2 °F 89% 29.90 in 10.0 mi WSW 6.9 mph - N/A Thunderstorm Overcast
1:53 PM 79.0 °F - 77.0 °F 94% 29.89 in 10.0 mi SW 9.2 mph - N/A Thunderstorm Thunderstorm
2:07 PM 78.8 °F - 75.2 °F 89% 29.89 in 10.0 mi West 8.1 mph - 0.00 in Rain , Thunderstorm Light Rain
2:41 PM 78.8 °F - 75.2 °F 89% 29.88 in 10.0 mi Calm Calm - 0.00 in   Partly Cloudy
2:53 PM 81.0 °F 87.3 °F 75.9 °F 85% 29.88 in 10.0 mi Calm Calm - 0.00 in   Clear
3:53 PM 86.0 °F 93.8 °F 73.9 °F 67% 29.86 in 10.0 mi ESE 15.0 mph - N/A   Clear
4:53 PM 84.0 °F 90.2 °F 73.0 °F 69% 29.86 in 9.0 mi ESE 12.7 mph - N/A   Clear
5:53 PM 84.9 °F 91.4 °F 73.0 °F 67% 29.86 in 10.0 mi ESE 12.7 mph - N/A   Clear
6:53 PM 82.9 °F 89.4 °F 73.9 °F 74% 29.85 in 9.0 mi ESE 12.7 mph - N/A   Partly Cloudy
7:53 PM 80.1 °F 85.4 °F 75.9 °F 87% 29.86 in 10.0 mi ESE 9.2 mph - 0.06 in   Scattered Clouds
8:53 PM 81.0 °F 86.7 °F 75.0 °F 82% 29.88 in 10.0 mi ESE 16.1 mph - 0.00 in   Mostly Cloudy
9:53 PM 80.1 °F 85.4 °F 75.9 °F 87% 29.90 in 9.0 mi East 9.2 mph - N/A   Partly Cloudy
10:17 PM 80.6 °F 87.1 °F 77.0 °F 89% 29.90 in 9.0 mi East 12.7 mph - N/A   Mostly Cloudy
10:27 PM 80.6 °F 87.1 °F 77.0 °F 89% 29.90 in 9.0 mi East 8.1 mph - N/A   Mostly Cloudy
10:44 PM 78.8 °F - 75.2 °F 89% 29.91 in 2.5 mi ESE 8.1 mph - 0.13 in Rain Heavy Rain
10:48 PM 78.8 °F - 75.2 °F 89% 29.91 in 5.0 mi ESE 9.2 mph - 0.13 in Rain Light Rain
10:53 PM 79.0 °F - 77.0 °F 94% 29.91 in 9.0 mi ESE 9.2 mph - 0.13 in   Mostly Cloudy
11:20 PM 80.6 °F 87.1 °F 77.0 °F 89% 29.91 in 9.0 mi SE 12.7 mph - N/A   Scattered Clouds
11:53 PM 79.0 °F - 75.9 °F 90% 29.91 in 10.0 mi SE 8.1 mph - N/A   Clear